Location: Alulod
(14.2076°N, 120.8898°E)
Time: 03:31:19
(UTC+00:00)

FengYun 1-2 T - Pass Details

Date: 13 December 2025
Orbit: 845 x 879 km, 98.8° (Epoch: 21 January)

Event Time Altitude Azimuth Distance (km) Brightness Sun altitude
Rises 20:27:06 0° 9° (N) 3,466 7.3 -24.5°
Reaches altitude 10° 20:29:30 10° 8° (N) 2,525 6.5 -24.0°
Maximum altitude 20:35:06 74° 284° (WNW) 907 4.1 -22.7°
Drops below altitude 10° 20:40:39 10° 199° (SSW) 2,506 6.7 -21.4°
Sets 20:43:02 0° 197° (SSW) 3,437 7.4 -20.9°
